Terminal Aerodrome Forecast
Issued by NWS

Home | Current Version | Previous Version | Text Only | Print | Product List | Glossary Off
Versions: 1 2 3 4 5 6 7 8 9 10 11 12 13 14

000
FTUS42 KMHX 012320
TAFISO
TAF
KISO 012320Z 0200/0224 22006KT P6SM FEW040
     FM020100 21003KT P6SM SCT050 BKN250
     FM021200 24006KT P6SM SCT050 SCT250
     FM021600 23010G18KT P6SM SCT050 BKN250
      AMD LTD TO CLD VIS AND WIND=

USA.gov is the U.S. government's official web portal to all federal, state and local government web resources and services.